Theta_e
315 314 314 314 314 314 314 314 314 313 310 311 306 303 303 303 303 303 303 303 303 302 303 303 304 307 311 311 310 309 306 306 307 305 307 305 305 305 306 307 310 309 310 310 312
315 314 314 314 314 314 314 314 313 313 312 310 308 303 304 303 303 303 303 303 303 302 303 304 306 309 309 309 308 306 305 305 303 302 304 304 304 304 305 304 305 307 308 310 311
315 315 315 315 313 314 314 314 314 312 312 309 309 303 303 304 304 302 302 303 302 302 303 304 306 307 306 307 305 303 305 302 303 305 303 303 304 304 304 304 306 306 308 309 310
315 315 315 311 312 312 314 314 314 311 310 308 309 304 303 304 306 302 302 303 302 302 303 304 305 305 303 303 304 304 303 303 303 303 302 302 303 303 303 305 306 306 306 307 309
315 315 316 310 309 309 311 313 314 309 308 308 308 304 303 304 303 302 302 303 303 302 302 303 304 304 302 302 303 303 302 302 302 302 303 303 302 301 302 304 304 305 305 306 307
315 315 316 311 309 307 310 311 312 307 307 308 306 304 304 304 302 303 302 303 303 302 303 303 304 304 303 302 301 303 302 302 303 303 303 302 302 302 302 304 304 303 304 305 306
316 316 316 313 308 306 308 309 307 307 308 308 305 303 304 302 302 303 303 303 303 303 303 304 304 304 303 302 303 302 302 303 302 303 302 301 302 300 303 303 303 303 303 304 305
316 317 316 314 309 306 307 308 307 305 304 303 303 304 301 301 302 303 303 303 303 303 304 305 305 304 303 303 304 302 302 303 302 301 302 301 305 304 303 303 304 303 304 303 304
316 316 316 315 309 307 307 308 307 305 305 305 305 303 301 302 303 304 303 303 303 303 304 304 304 304 304 303 303 300 302 305 304 300 300 301 303 303 303 303 304 305 304 303 304
316 316 316 314 309 307 306 307 305 303 307 306 303 304 302 302 303 304 303 303 304 304 304 305 304 299 296 300 304 304 302 303 303 300 299 301 302 302 303 303 304 303 303 303 303
316 315 316 311 308 307 306 308 308 308 301 299 300 301 303 303 304 304 304 304 305 306 301 303 299 298 300 300 301 301 303 303 302 299 299 300 298 300 300 300 299 300 300 301 302
316 316 316 309 307 307 306 307 307 302 300 300 301 302 303 304 304 304 304 304 303 300 302 300 300 300 300 300 301 302 301 300 300 298 298 296 297 298 297 298 300 300 301 301 301
317 316 315 307 307 307 306 306 305 303 302 302 301 303 304 304 303 303 304 302 300 298 297 301 301 300 301 299 302 299 300 300 300 298 294 293 300 299 298 298 299 300 301 300 300
316 316 313 307 307 306 305 305 305 307 298 302 301 302 304 304 303 303 303 303 299 297 299 300 300 301 300 299 298 301 298 298 298 295 298 293 301 298 296 297 298 299 300 301 300
315 315 307 306 306 305 305 304 305 306 302 301 301 303 304 303 302 303 303 303 300 299 297 299 299 299 299 299 297 300 296 297 294 289 292 294 293 298 297 300 298 298 299 301 300
316 307 306 305 305 305 304 304 307 302 301 300 301 302 301 301 302 303 303 303 301 300 298 298 297 297 298 297 297 295 294 292 290 287 293 287 292 300 301 299 296 298 298 299 300
310 307 304 304 304 304 304 306 302 303 297 299 302 302 299 299 301 300 299 297 299 295 293 296 298 296 297 298 297 292 289 291 294 293 297 279 292 299 299 296 297 295 297 298 299
307 304 302 302 302 303 305 299 300 295 295 300 302 300 301 299 298 298 301 298 297 295 289 290 293 292 296 297 296 295 289 292 290 295 294 280 293 300 296 296 296 296 297 298 298
304 302 302 302 303 304 303 298 298 298 299 301 299 296 295 300 297 295 299 296 298 296 293 291 294 294 295 295 293 293 290 290 284 275 287 289 292 295 296 292 294 296 298 298 298
302 302 301 302 302 302 298 299 296 298 301 300 297 296 291 291 297 291 295 299 299 296 293 294 291 289 294 294 292 291 290 292 287 291 290 289 283 296 291 291 289 293 295 297 297
301 301 300 301 300 300 295 289 290 299 301 300 299 295 296 293 295 292 294 299 297 296 294 289 287 289 294 288 289 289 288 288 288 291 292 290 295 288 288 285 287 292 294 296 296
299 298 299 301 297 290 289 288 298 300 301 300 298 296 295 295 295 290 298 296 297 296 297 295 292 289 289 292 292 292 289 291 293 288 285 290 293 289 286 288 290 294 295 296 295
297 298 298 299 292 287 295 296 298 299 298 299 299 299 296 291 292 298 299 299 297 297 295 296 287 284 289 289 290 291 292 289 287 290 288 292 294 284 286 291 292 292 294 293 294
297 291 298 297 295 292 292 293 295 298 299 298 299 299 297 290 292 292 299 298 298 298 298 297 293 287 289 288 286 291 292 291 290 286 291 294 291 289 291 288 291 291 291 292 294
296 294 293 289 292 293 293 293 296 296 298 298 295 297 294 291 294 290 297 298 297 298 298 293 289 292 290 284 284 289 289 289 289 290 294 295 293 284 283 283 289 289 289 289 292
296 296 295 293 295 295 293 295 294 294 296 296 292 296 294 289 294 294 296 297 296 296 296 294 287 289 288 292 294 295 294 291 293 294 291 294 295 284 290 288 288 287 288 289 290
296 296 295 295 294 291 292 296 295 295 297 297 297 296 297 296 296 297 297 297 296 295 295 293 286 284 285 285 284 288 288 293 289 284 291 289 288 285 281 286 287 287 288 288 290
Wind_Speed
14 15 15 14 13 13 12 12 12 11 11 9 8 6 2 2 4 1 2 4 2 1 2 5 7 9 8 5 5 4 4 2 3 5 2 1 2 2 2 3 6 5 4 3 15
13 15 15 15 14 13 12 12 12 11 11 8 6 5 3 2 1 5 6 4 2 1 4 8 9 11 5 4 3 3 4 7 1 2 1 1 0 2 1 4 5 7 8 6 15
13 14 16 17 16 13 12 12 12 12 10 7 5 3 2 1 2 5 6 5 2 2 5 7 9 7 3 4 2 2 4 2 1 1 0 1 1 2 2 5 8 7 10 10 18
12 14 16 17 16 14 13 12 12 13 9 5 4 2 1 1 1 5 5 4 1 2 5 7 7 5 3 3 2 3 1 2 2 1 1 2 4 4 7 4 3 4 7 11 18
13 14 16 16 15 16 15 12 12 11 6 3 3 2 1 3 4 5 4 4 2 3 5 6 6 4 5 5 3 2 2 2 1 1 2 4 4 6 14 11 13 10 9 11 17
13 15 16 15 16 17 15 12 10 8 4 2 1 0 1 3 4 5 3 5 3 4 5 6 4 6 7 3 2 3 3 2 3 3 3 4 3 4 2 1 5 15 11 11 15
14 16 16 15 17 17 14 11 7 5 3 1 1 3 4 4 3 5 3 4 6 5 6 7 8 3 5 4 4 5 2 2 6 5 3 7 3 6 7 8 6 6 11 12 14
14 16 16 16 16 15 13 8 5 4 2 2 2 2 4 4 3 5 3 4 6 7 8 9 8 8 4 8 5 4 4 2 2 9 2 3 6 2 1 4 5 5 7 12 15
15 16 17 16 15 13 11 5 3 4 3 2 1 3 4 3 3 6 4 4 6 6 7 7 4 5 4 4 4 7 2 1 1 6 4 4 6 2 2 6 14 17 15 14 15
14 15 16 15 13 12 9 0 5 5 0 1 2 4 3 3 4 5 3 4 4 6 4 2 5 4 5 5 2 1 2 2 2 6 5 4 11 12 16 17 25 25 21 21 22
15 13 15 14 13 10 6 2 3 1 9 8 5 5 5 5 9 6 3 5 5 4 4 5 7 3 2 2 1 2 2 1 1 3 5 2 9 19 17 16 19 21 15 13 15
17 13 13 12 11 7 5 1 1 7 9 9 8 7 9 5 3 10 4 2 3 3 4 6 4 2 1 4 4 5 2 3 3 3 2 6 16 12 6 4 3 6 9 12 14
14 12 12 10 8 4 3 1 5 5 4 4 7 6 4 6 7 12 7 4 6 5 5 6 0 3 3 6 4 3 3 2 3 6 3 8 7 5 3 5 5 6 9 12 13
17 12 9 8 5 3 2 1 3 3 4 5 3 5 5 3 5 11 7 3 6 4 4 6 4 3 4 5 2 2 2 2 3 4 2 5 4 7 6 9 6 8 7 12 12
18 8 6 5 3 3 2 1 4 3 3 3 3 3 6 6 1 7 12 7 4 3 5 3 4 5 7 2 2 2 3 3 2 4 3 7 4 7 5 5 6 14 13 10 11
10 4 4 3 2 1 0 4 5 6 4 2 3 4 4 8 4 5 4 8 5 5 7 3 2 3 2 2 3 3 3 5 3 3 3 3 3 6 2 3 7 11 15 15 10
5 2 4 3 1 1 4 5 5 3 3 4 2 3 4 5 4 8 5 6 3 5 3 5 3 2 3 1 1 4 6 3 5 4 4 3 2 9 5 6 5 11 21 21 13
5 3 1 1 1 3 6 5 4 2 4 1 1 2 4 4 4 6 2 3 5 4 4 4 6 4 6 3 3 4 5 5 4 1 4 3 4 4 2 12 16 11 17 19 17
3 2 1 2 2 3 2 4 6 4 3 6 2 5 4 1 3 4 3 2 1 2 5 4 2 2 4 2 2 3 3 3 7 1 3 2 7 9 3 2 17 27 33 33 31
3 1 2 1 2 3 4 3 2 1 1 1 3 2 3 3 2 4 1 1 1 1 2 4 3 2 2 2 7 4 3 4 3 1 4 4 5 5 4 6 6 14 23 30 34
3 2 3 1 2 2 3 5 2 1 0 2 3 2 1 4 2 2 3 1 2 1 4 4 4 5 1 2 6 2 2 5 3 3 5 2 6 7 7 6 1 11 26 32 34
1 2 3 2 2 3 2 4 1 2 1 2 4 3 3 4 3 2 3 5 2 3 2 1 4 2 6 1 1 4 5 3 4 5 1 2 7 4 7 5 3 24 29 31 30
2 2 2 2 2 1 1 2 2 1 1 1 2 2 2 3 2 2 3 1 5 2 5 4 2 3 7 4 4 3 4 4 3 2 6 4 5 2 2 3 13 18 29 31 29
1 2 2 2 4 6 4 2 2 2 2 2 3 3 3 3 3 4 4 1 2 1 2 5 3 7 6 6 4 3 4 5 5 3 4 12 8 6 11 13 23 28 28 30 25
2 2 2 1 3 3 3 5 4 3 1 1 4 3 4 3 2 2 1 1 1 2 2 4 4 2 5 5 3 6 6 7 10 8 8 17 14 4 5 3 13 24 32 32 29
0 3 4 3 3 1 3 4 6 3 5 2 4 4 4 5 4 6 5 3 4 1 5 1 3 1 5 6 8 14 11 14 19 17 14 19 30 2 7 17 25 30 31 30 31
3 4 2 1 2 3 3 5 6 7 3 2 6 5 3 4 6 2 7 3 4 6 5 4 4 2 6 4 6 9 13 18 5 4 8 8 7 2 6 17 22 28 26 29 29
Wind_Direction
6 5 3 359 355 352 349 351 352 350 351 350 355 351 358 146 53 49 351 359 323 303 168 164 163 161 156 152 130 121 65 169 226 162 236 8 169 152 182 170 186 200 211 192 180
358 360 358 356 349 344 343 339 340 339 338 335 347 357 12 172 229 24 7 357 340 161 144 160 156 156 151 141 133 106 124 215 170 176 183 301 237 188 183 199 223 222 220 215 188
351 353 353 349 341 336 334 332 331 333 327 325 330 355 62 117 120 2 3 357 351 155 155 157 153 157 125 143 117 128 172 176 166 73 250 262 242 283 211 234 223 221 229 212 195
344 346 347 347 343 337 328 326 325 329 322 313 313 319 65 89 111 348 2 10 42 128 150 150 152 142 106 126 124 107 105 136 159 297 356 303 304 290 233 224 220 241 237 223 208
336 339 342 343 344 344 334 323 325 330 321 310 304 291 156 102 48 7 13 26 79 128 148 147 143 144 132 123 121 104 144 89 88 357 332 298 270 266 264 257 257 254 246 234 225
333 335 336 334 334 341 339 328 327 331 327 319 308 200 166 101 18 17 30 36 73 129 130 138 145 128 112 89 99 111 107 89 29 6 355 347 287 328 256 303 270 240 240 233 231
324 333 330 326 334 341 341 335 337 344 338 346 124 98 101 107 49 20 50 61 76 110 114 120 125 133 118 102 101 107 94 89 21 359 355 332 255 236 273 269 289 265 236 235 231
320 324 323 325 333 337 340 345 353 12 47 84 106 126 92 82 56 27 67 76 86 96 107 112 109 99 70 117 46 55 46 69 4 6 359 9 276 303 306 297 293 275 261 252 244
309 316 319 320 325 336 339 352 14 55 62 72 72 140 99 77 39 32 61 101 98 103 107 109 105 85 80 75 27 15 163 22 38 36 328 40 276 266 297 301 285 287 281 272 263
299 308 309 317 319 333 339 250 67 28 296 103 69 122 64 21 30 27 64 107 112 121 103 80 62 69 34 51 213 272 40 342 307 342 355 315 274 283 288 285 281 288 283 274 266
293 300 307 314 310 330 334 275 271 76 68 87 66 85 51 80 52 39 89 107 118 90 57 27 67 77 5 12 65 104 82 339 18 359 337 332 286 284 300 274 279 288 289 287 279
283 289 298 305 314 328 333 297 103 137 92 68 72 75 51 60 69 42 56 96 65 72 344 31 77 321 87 29 81 56 89 336 295 21 346 352 292 290 303 277 293 316 324 324 314
273 286 298 306 313 320 3 69 138 137 90 52 55 50 33 53 44 14 30 68 80 53 21 103 159 344 109 35 53 44 104 15 253 330 76 320 301 322 317 333 320 313 330 344 340
266 281 293 304 302 329 342 15 164 158 77 318 355 25 14 89 58 28 26 55 42 144 83 76 345 59 71 73 33 72 344 33 12 38 289 10 276 304 345 333 16 8 356 359 2
263 270 279 295 288 312 319 51 158 138 44 315 348 25 44 80 18 16 31 59 76 81 83 257 21 41 61 12 16 131 46 62 70 84 59 351 74 272 357 12 5 12 3 355 2
225 268 281 291 286 297 274 128 129 47 258 340 323 352 50 29 34 4 56 67 101 80 39 108 60 58 110 89 66 107 82 41 58 86 39 271 85 294 358 334 320 331 349 354 349
143 295 287 275 262 183 148 138 42 131 344 283 15 27 90 4 27 25 29 22 80 78 355 357 7 359 44 117 51 65 55 349 2 10 212 331 15 244 288 306 277 325 352 359 352
121 239 149 329 156 154 152 56 96 232 217 170 108 77 90 353 33 358 70 44 44 77 96 128 334 5 348 73 168 55 132 144 207 271 273 355 237 241 144 339 42 48 15 18 15
173 176 136 99 122 159 157 71 206 194 139 156 84 72 344 51 121 68 36 140 331 48 137 123 303 323 28 27 62 243 57 160 103 65 33 271 290 315 115 81 40 51 34 32 33
152 129 74 89 127 150 80 221 139 289 331 137 153 120 160 263 95 65 346 239 211 358 182 197 55 256 265 58 38 131 144 53 10 88 294 286 275 238 312 347 1 33 21 18 3
132 110 22 121 139 110 147 204 235 247 56 89 160 121 155 159 119 149 177 205 141 103 79 129 90 282 108 191 181 22 16 44 115 127 176 242 263 215 208 209 186 347 17 9 360
97 60 17 163 51 39 114 181 124 37 50 48 102 113 148 161 107 110 178 200 141 148 84 88 131 182 217 285 211 158 189 156 129 255 214 152 270 199 218 205 41 14 5 356 352
58 77 4 186 128 9 117 119 149 117 88 124 96 47 122 153 84 189 204 186 151 132 163 181 329 15 342 357 348 220 204 144 122 89 202 157 251 335 260 97 6 6 2 354 350
67 39 51 80 90 132 143 169 96 182 136 114 131 122 125 49 355 175 203 166 189 164 131 151 152 172 197 210 137 185 201 198 145 140 196 229 268 322 328 357 3 358 352 352 348
43 96 119 271 355 105 122 142 144 172 247 156 18 181 160 123 58 223 209 185 185 196 125 112 198 234 257 204 194 211 196 198 203 198 208 265 253 215 256 278 346 345 342 339 337
237 154 107 100 124 129 329 216 156 197 152 238 151 165 155 159 189 196 160 194 199 156 157 76 257 88 278 285 254 268 241 221 233 239 255 267 276 208 5 342 336 337 332 326 325
98 124 136 148 152 113 213 174 198 149 199 169 172 130 184 222 201 196 213 221 166 165 174 155 133 70 270 345 334 299 236 222 194 198 210 223 253 322 320 320 323 320 319 314 317